sat.trackr.live / text

‹ back to catalog

STARLINK-36970

NORAD 68071 · 2026-042C

PAYLOAD ACTIVE UNKNOWN

§ Identity

Operator
Country
US
Launch date
2026-03-04
Launch site
AFETR
Launch vehicle
Mass (kg)
RCS (m²)

Purposes: comms

External: N2YO · Heavens-Above · Gunter

§ Orbital elements

Epoch: 2026-09-19T15:01:02.326368Z

Period
93.84 min
Inclination
53.1603°
Eccentricity
0.0000948
Mean motion
15.34457840 rev/d
Perigee alt
461.9 km
Apogee alt
463.2 km
Semi-major
6,840.7 km
B*
1.1271e-3
RAAN
353.9400°
Arg perigee
76.6831°
Mean anomaly
283.4277°
Rev number
3,205

§ Raw data

STARLINK-369701 68071U 26042C   26262.62572137  .00037966  00000+0  11271-2 0  99912 68071  53.1603 353.9400 0000948  76.6831 283.4277 15.34457840 32052

JSON: /api/v1/satellites/68071 · /tle

For live sub-satellite position, see the globe view (requires WebGL).

§ Visibility from observer

Set your observer location to see the next 7 days of passes ≥ 10°. The values pass through the URL so the page stays shareable.

No JS? Fill the form by hand. The geolocation button needs JavaScript.